www.pogodaiklimat.ru

Погода и климат >> Архив погоды >> Китай >> Хэйлунцзян >> Фуцзинь


ПОГОДА в Фуцзине

  • Прогноз погоды в Фуцзине
  • Монитор погоды в Фуцзине

АРХИВ ПОГОДЫ в Фуцзине

Время (UTC), дата Ветер
(напр.,м/с)
 
Видим.   Явления Облачность Т
(С)
Тd
(С)
f
(%)
Тe
(С)
Тes
(С)
Комфортность P
(гПа)
Po
(гПа)
Тmin
(С)
Tmax
(С)
R
(мм)
R24
(мм)
S
(см)
03 11.09 СЗ 5 30 км 8/8 600 м
[]
+17.4 +9.8 61 +17 +18 1018.3 1010.5
06 11.09 З 5 30 км слаб. дождь 9/9 600 м
[]
+17.9 +9.8 59 +18 +18 1017.3 1009.2 +12.7 0.0
09 11.09 З 3 30 км 3/3 600 м
[]
+17.4 +9.1 58 +17 +18 1017.6 1009.8
12 11.09 СЗ 1 30 км ясно +12.8 +8.7 76 +13 +13 1019.1 1010.9
15 11.09 З 2 30 км н/о +12.7 +8.6 76 +12 +12 1019.2 1011.3
18 11.09 З 3 30 км н/о +12.2 +9.6 84 +11 +11 1019.3 1011.2 +19.3
21 11.09 З 2 30 км н/о +10.5 +7.9 84 +9 +9 1020.0 1012.0
00 12.09 З 4 30 км ясно +16.0 +11.6 75 +15 +19 1020.5 1012.4
03 12.09 ЮЗ 2 30 км ясно +19.4 +5.8 41 +21 +32 комфорт 1019.8 1012.1
06 12.09 СЗ 3 30 км ясно +20.9 +7.9 43 +23 +28 комфорт 1018.6 1010.5 +9.5
09 12.09 ЮВ 2 30 км 6/6
[]
+18.5 +12.3 67 +20 +20 1017.3 1009.6
12 12.09 Ю 2 30 км 6/6
[]
+13.9 +10.9 82 +13 +13 1017.5 1009.4
15 12.09 В 2 30 км н/о +12.7 +11.6 93 +12 +12 1016.4 1008.5
18 12.09 ЮВ 2 30 км н/о +11.4 +10.6 95 +10 +10 1015.2 1007.2 +21.3
21 12.09 ЮВ 3 30 км н/о +11.2 +10.7 97 +9 +9 1014.6 1006.7
00 13.09 Ю 4 30 км 8/8
[]
+16.6 +13.1 80 +16 +17 1013.1 1005.0
03 13.09 Ю 6 30 км 9/9 1000 м
[]
+20.1 +12.8 63 +22 +22 комфорт 1010.7 1003.1
06 13.09 ЮВ 7 30 км 8/8
[]
+21.4 +14.1 63 +24 +24 комфорт 1008.3 1000.3 +10.7
09 13.09 Ю 4 30 км 10/10 1000 м
[]
+18.4 +14.7 79 +19 +19 1007.1 999.5
12 13.09 Ю 5 30 км 10/10
[]
+17.7 +15.7 88 +17 +17 1004.8 996.9
15 13.09 Ю 4 13 км слаб. дождь н/о +16.1 +15.9 99 +15 +15 1003.4 995.7
18 13.09 З 4 30 км слаб. дождь ?/? +14.6 +13.5 93 +13 +13 1006.4 998.5 +21.5 11
21 13.09 СЗ 5 30 км н/о +13.0 +10.0 82 +11 +11 1009.5 1001.7
00 14.09 СЗ 5 30 км ясно +15.2 +10.4 73 +14 +16 1011.3 1003.3 0.5
03 14.09 СЗ 3 30 км ясно +18.8 +10.9 60 +20 +29 1011.7 1004.0
06 14.09 З 4 30 км ясно +20.7 +10.5 52 +23 +27 комфорт 1011.2 1003.2 +12.9
09 14.09 ЮЗ 2 30 км ясно +18.8 +12.3 66 +20 +20 1011.6 1003.9
12 14.09 ЮЗ 3 29 км ясно +14.4 +11.4 82 +13 +13 1013.0 1004.9
15 14.09 З 3 30 км н/о +13.3 +9.9 80 +12 +12 1013.2 1005.4
18 14.09 Ю 2 30 км н/о +10.2 +9.3 94 +9 +9 1013.2 1005.1 +21.1
21 14.09 Ю 2 30 км н/о +9.5 +9.4 99 +8 +8 1013.4 1005.5
00 15.09 Ю 2 30 км ясно +17.1 +12.2 73 +17 +22 1013.0 1005.0
03 15.09 Ю 5 30 км 1/1 600 м
[]
+21.3 +10.8 51 +23 +28 комфорт 1011.3 1003.7
06 15.09 Ю 3 30 км ясно +22.8 +11.5 49 +25 +30 комфорт 1008.8 1000.8 +8.9
09 15.09 Ю 4 30 км ясно +18.5 +12.3 67 +19 +19 1007.3 999.7
12 15.09 Ю 3 30 км 5/5 1000 м
[]
+14.3 +10.3 77 +13 +13 1007.3 999.3
15 15.09 Ю 2 30 км в посл. час дождь н/о +12.1 +10.5 90 +11 +11 1008.1 1000.3
18 15.09 З 2 30 км н/о +12.9 +11.6 92 +12 +12 1008.0 1000.1 +23.0
21 15.09 СЗ 7 30 км н/о +11.5 +4.2 61 +9 +9 1010.6 1002.7
00 16.09 СЗ 3 30 км 6/6 1000 м
[]
+12.0 +5.4 64 +11 +12 1013.4 1005.3
03 16.09 З 5 30 км ясно +15.3 -1.7 31 +14 +20 1013.7 1005.9
06 16.09 З 5 30 км ясно +15.9 +0.1 34 +15 +18 1013.3 1005.2 +10.9
09 16.09 З 4 30 км ясно +14.7 +0.9 39 +14 +14 1013.4 1005.6
12 16.09 З 3 30 км 3/3 600 м
[]
+11.2 +3.5 59 +10 +10 1014.9 1006.7
15 16.09 З 3 30 км н/о +9.5 +3.9 68 +7 +7 1015.9 1007.9
18 16.09 З 3 30 км н/о +7.9 +3.9 76 +5 +5 1016.1 1007.9 +16.2
21 16.09 З 2 30 км н/о +6.6 +3.6 81 +4 +4 1016.5 1008.5
00 17.09 З 3 30 км ясно +13.1 +4.8 57 +12 +16 1016.5 1008.3
03 17.09 ЮЗ 4 30 км ясно +17.2 +2.4 37 +17 +24 1015.0 1007.3
06 17.09 Ю 4 30 км 3/3
[]
+18.4 +4.6 40 +18 +21 1012.4 1004.3 +6.6
09 17.09 ЮВ 3 30 км 8/8 1000 м
[]
+14.2 +7.9 66 +13 +13 1010.5 1002.7
12 17.09 ЮВ 4 30 км 6/6
[]
+11.5 +7.6 77 +9 +9 1008.3 1000.2
15 17.09 ЮВ 3 30 км н/о +9.6 +7.0 84 +7 +7 1004.9 997.0
18 17.09 Ю 3 30 км н/о +10.7 +7.9 83 +9 +9 1002.5 994.5 +18.6
21 17.09 З 8
{20}
30 км слаб. дождь ?/? +5.6 +3.1 84 0 0 1006.2 998.2
00 18.09 З 9
{20}
30 км слаб. дождь 8/8 600 м
[]
+7.2 +2.1 70 +2 +2 1008.4 1000.2 2

 

Местоположение метеостанции Фуцзинь (Хэйлунцзян, Китай): широта 47.23 долгота 131.98 высота над уровнем моря 65 м.

В архиве по умолчанию представлена погода в Фуцзине за последнюю неделю. Архивные данные за месяц целиком и за предыдущие месяцы, начиная с января 2011 года, Вы можете получить, выбрав интересующий диапазон дат из раскрывающегося списка и нажав кнопку "Ввод!".


*Определитесь, кто Вы:
робот инопланетянин человек

Внимание! Время в таблицах - всемирное. Для получения местного времени необходимо прибавить поправку, которая равна 8 ч.

Смотрите также архив погоды в соседних городах и на ближайших метеорологических станциях:

Погода в Биджане (Еврейская автономная область, Россия) (81 км)
Погода в Ленинское (Еврейская автономная область, Россия) (93 км)
Погода в Екатерино-Никольском (Еврейская автономная область, Россия) (100 км)
Погода в Баоцине (Хэйлунцзян, Китай) (102 км)
Погода в Бикине (Хабаровский край, Россия) (175 км)
Погода в Лермонтовке (Хабаровский край, Россия) (176 км)
Погода в Хулине (Хэйлунцзян, Китай) (179 км)
Погода в Биробиджане (Еврейская автономная область, Россия) (180 км)
Погода в Дальнереченске (Приморский край, Россия) (200 км)
Погода в Смидовиче (Еврейская автономная область, Россия) (204 км)

Пояснения к столбцам:

Ветер - указаны скорость ветра в м/с - средняя за 10 мин, порывы в срок и между сроками (в фигурных скобках) и направление, откуда дует ветер: С - северный, СВ - северо-восточный, В - восточный, ЮВ - юго-восточный, Ю - южный, ЮЗ - юго-западный, З - западный, СЗ - северо-западный.
Видимость - горизонтальная дальность видимости в метрах или километрах. При видимости от 1 до 10 км при отсутствии осадков обычно наблюдается дымка, при ухудшении видимости до 1 км и менее - туман. В сухую погоду видимость может ухудшаться дымом, пылью или мглою.
Явления - указаны атмосферные явления, наблюдавшиеся в срок или в последний час перед сроком; фигурными скобками обозначены явления, наблюдавшиеся между сроками (за 1-3 часа до срока); квадратными скобками обозначены град или гололедные отложения с указанием их диаметра в мм.
Облачность - указаны через наклонную черту общая и нижняя облачность в баллах и высота нижней границы облаков в метрах; квадратными скобками обозначены формы облаков: Ci - перистые, Cs - перисто-слоистые, Cc - перисто-кучевые, Ac - высококучевые, As - высокослоистые, Sc - слоисто-кучевые, Ns - слоисто-дождевые, Cu - кучевые, Cb - кучево-дождевые. Подробнее классификацию облаков см. в Атласе облаков (PDF).
T - Температура воздуха - температура, измеренная на высоте 2 м над землей.
Td - Температура точки росы - температура, при понижении до которой содержащийся в воздухе водяной пар достигнет насыщения.
f - Относительная влажность воздуха - влажноcть воздуха, измеренная на высоте 2 м над землей.
Te - Эффективная температура - температура, которую ощущает одетый по сезону человек в тени. Характеристика душности погоды. При расчете учитывается влияние влажности воздуха и скорости ветра на теплоощущения человека.
Tes - Эффективная температура на солнце - температура, которую ощущает человек, с поправкой на солнечный нагрев. Характеристика знойности погоды. Зависит от высоты солнца над горизонтом, облачности и скорости ветра. Ночью, в пасмурную погоду, а также при ветре 12 м/с и более поправка равна нулю.
P - Атмосферное давление - приведенное к уровню моря атмосферное давление.
Po - Атмосферное давление - измеренное на уровне метеостанции атмосферное давление.
Tmin - Минимальная температура - минимум температуры воздуха на высоте 2 м над землей.
Tmax - Максимальная температура - максимум температуры воздуха на высоте 2 м над землей.
R - Количество осадков - Количество выпавших осадков за период времени, мм. При наведении курсора мыши на число - период времени, за который выпало указанное количество осадков.
R24 - Количество осадков - Количество выпавших осадков за 24 часа, мм.
S - Снежный покров - Высота снежного покрова, см. При наведении курсора мыши на число - состояние снежного покрова и степень покрытия местности в баллах.